CAPE
720 634 619 686 747 985 1232 1244 1237 1273 1266 1239 1072 908 871 628 579 510 645 855 830 724 744 712 730 760 707 561 562 593 649 671 736 767 483 439 775 914 794 864 925 899
717 594 596 567 547 610 737 883 958 838 960 985 983 992 912 663 621 586 512 641 691 827 792 792 769 765 621 534 655 744 766 713 632 710 581 526 771 811 897 863 1055 1020
650 652 566 480 432 534 609 601 725 852 939 1013 937 914 714 639 626 616 600 507 725 839 808 818 783 746 677 603 623 720 828 802 743 711 566 564 775 703 815 835 1062 994
554 516 509 462 563 569 559 550 630 780 916 986 837 701 701 584 565 592 689 789 811 772 791 800 762 683 706 704 637 533 636 717 761 788 730 735 561 528 719 1188 944 972
380 488 473 389 385 441 512 532 584 615 609 561 668 755 746 551 532 580 666 776 798 776 744 761 716 655 647 666 592 615 651 758 777 757 748 615 580 534 807 707 781 934
407 393 412 376 395 543 569 613 635 640 492 543 736 676 828 624 530 568 668 772 841 777 716 627 609 623 630 622 622 512 541 590 652 696 674 837 672 616 625 811 1043 1069
515 503 484 368 466 563 494 604 628 619 602 605 580 648 757 648 542 570 645 757 800 772 721 661 635 636 666 711 598 634 631 601 355 403 582 484 503 496 564 895 992 1044
385 456 534 492 479 479 383 321 363 506 684 766 787 741 771 640 550 590 653 728 804 737 676 657 705 665 699 684 627 587 654 752 756 683 419 542 459 494 874 984 1187 1148
324 456 484 510 238 259 291 299 416 476 538 633 676 747 739 613 571 606 698 698 747 729 675 690 710 698 714 700 616 629 621 506 428 504 515 541 819 1037 900 671 694 613
233 272 468 504 279 381 417 448 522 582 558 604 627 699 698 636 549 610 662 695 670 701 640 611 607 656 746 691 663 628 504 427 411 440 614 852 1187 1153 1045 932 784 731
231 238 332 513 527 456 487 540 552 547 525 474 529 628 655 584 564 558 604 651 643 618 523 519 682 798 794 774 951 840 632 528 479 515 709 1207 1424 1414 1055 1139 1155 1103
262 263 231 372 485 573 608 591 585 534 467 428 489 629 654 577 576 586 603 639 541 583 584 557 571 637 748 1013 1148 1205 785 754 816 824 1101 1380 1278 1445 1349 1363 1291 1269
76 226 288 221 322 387 521 581 564 550 538 524 514 603 617 547 540 623 566 587 575 526 421 437 422 554 848 1071 1053 1029 1198 1272 1305 1069 926 1322 1294 1250 1229 1367 1397 1308
4 15 153 248 190 202 279 421 522 449 387 435 538 585 555 552 597 527 508 474 373 384 450 541 458 454 746 909 853 955 1008 1068 1087 1012 925 966 1026 1072 1195 1393 1372 1320
2 4 7 106 198 187 111 228 336 305 329 398 504 614 556 583 650 551 378 390 363 437 506 464 347 338 525 675 693 701 876 882 986 979 1022 796 683 876 871 752 924 823
1 2 3 4 46 134 115 70 196 262 271 358 438 543 551 636 602 447 354 296 369 432 411 327 272 278 255 233 263 501 648 676 922 1095 1006 900 646 672 463 615 712 704
1 1 1 2 14 69 110 136 161 78 249 198 260 454 478 658 534 547 425 269 339 448 409 325 253 252 215 198 185 208 468 734 915 987 994 940 762 537 606 632 645 603
1 1 1 4 33 65 76 150 160 169 146 1 113 237 294 559 486 322 335 261 265 330 253 259 270 224 170 151 170 173 222 653 793 763 719 635 321 562 597 590 486 405
1 2 3 3 2 4 27 30 119 41 0 0 0 187 221 465 347 432 306 142 245 146 189 203 197 171 140 123 90 90 105 266 443 474 442 404 406 578 581 442 310 194
1 2 2 3 3 0 1 21 17 36 2 0 112 150 209 339 353 282 216 39 0 70 46 159 163 140 106 70 43 0 0 56 162 143 297 416 326 532 474 222 0 0
2 2 1 1 0 0 0 2 14 5 5 32 55 130 218 236 162 159 88 116 52 90 126 152 109 14 0 43 21 72 125 218 303 347 393 349 390 436 94 0 0 0
2 1 1 1 0 0 0 2 11 27 4 80 147 188 213 132 87 96 28 26 69 110 126 101 88 44 15 43 75 122 194 277 339 402 334 376 292 174 0 0 0 0
2 1 1 1 1 1 1 11 19 37 22 34 58 220 164 68 69 34 18 54 103 103 108 93 84 0 42 45 90 124 172 188 289 371 410 305 219 27 0 0 0 0
1 2 0 0 0 1 1 0 12 24 14 27 8 15 54 54 46 34 28 32 46 90 104 103 65 61 51 65 86 115 143 210 394 325 212 224 163 0 0 0 0 0
0 2 3 7 1 1 1 14 9 6 2 3 23 21 75 36 41 40 61 87 128 128 84 88 60 67 78 84 102 122 150 211 322 355 321 238 176 0 0 0 0 26
0 1 1 1 3 1 1 1 4 4 0 0 16 40 75 61 52 32 77 29 169 46 89 68 74 79 77 69 94 114 149 177 184 14 0 7 121 0 0 0 35 63
Wind_Speed
22 23 23 22 20 17 17 18 20 20 21 21 19 19 19 21 19 16 17 18 15 16 16 16 17 19 20 20 20 19 19 18 18 18 15 14 13 14 13 14 14 15
22 23 23 23 21 20 20 20 20 20 20 19 19 20 21 21 20 21 19 16 13 15 16 18 20 21 22 22 21 20 20 19 17 16 15 12 14 14 14 15 15 16
22 22 23 23 22 21 22 22 21 20 20 20 22 23 20 21 21 23 23 18 16 16 18 20 22 22 24 27 27 24 20 18 19 16 15 13 16 16 15 16 15 15
21 21 22 23 24 24 25 24 23 22 23 24 24 23 21 21 21 23 23 20 18 18 20 21 22 22 22 24 28 24 17 19 17 17 16 19 19 17 16 17 16 15
18 19 22 23 25 27 26 23 21 21 21 22 24 22 21 20 21 22 22 22 20 19 20 20 22 22 21 24 25 25 22 18 15 17 18 19 18 17 18 17 17 16
17 19 22 24 26 28 25 19 19 21 20 21 22 22 21 19 19 21 21 20 19 19 20 20 22 23 23 22 24 23 20 14 13 15 17 19 20 19 21 19 18 17
17 18 20 21 22 25 22 17 18 21 21 22 22 21 21 19 19 20 21 20 20 20 21 22 23 25 24 23 23 22 20 20 21 17 17 22 23 18 19 18 18 17
14 16 15 15 17 20 20 19 19 19 21 21 21 20 20 19 19 22 21 21 21 20 21 22 23 24 24 24 23 23 20 20 18 19 19 19 21 20 18 19 19 17
12 13 13 12 13 19 19 19 18 18 19 19 21 21 20 20 21 23 22 22 21 21 21 21 23 24 25 24 24 22 20 21 18 17 17 18 19 20 20 20 19 18
11 12 11 7 8 11 11 12 14 17 19 20 20 22 22 21 21 23 24 23 23 22 21 21 22 23 23 25 26 22 22 22 20 18 18 19 19 22 22 22 19 18
10 11 11 8 5 5 4 6 12 17 21 20 21 22 23 22 22 23 24 23 23 23 21 20 22 22 23 24 24 22 22 21 20 21 20 20 22 22 23 21 19 18
10 10 10 8 7 6 3 2 5 9 13 16 16 18 20 20 20 21 21 22 24 23 22 22 22 23 24 23 22 23 21 20 21 21 22 24 24 23 22 21 20 19
nan 11 10 10 10 6 4 3 5 10 10 10 13 13 16 19 22 25 24 22 24 26 25 24 22 23 24 24 23 22 22 23 23 23 23 25 26 25 23 22 21 21
nan nan 11 11 11 10 7 6 6 8 9 11 13 14 16 19 23 25 26 23 22 26 27 27 27 26 26 25 24 23 23 22 22 23 24 26 26 25 24 22 21 21
nan nan nan 11 12 12 12 11 11 11 11 11 13 15 17 19 23 23 26 24 25 28 29 28 27 28 27 25 23 23 23 22 22 24 26 27 26 25 23 23 22 22
nan nan nan nan nan 12 13 nan 15 14 14 13 15 16 17 19 22 22 22 23 26 28 28 26 26 28 27 22 23 24 23 23 23 25 27 27 25 25 25 24 23 23
nan nan nan nan nan nan 13 14 16 nan 17 20 24 24 20 21 24 22 21 23 24 27 28 27 26 29 28 24 25 26 24 24 25 25 26 26 26 25 24 23 24 25
nan nan nan nan nan nan nan 14 16 19 27 nan 27 25 23 26 24 22 24 25 24 26 28 28 28 30 29 26 25 25 25 25 25 25 25 25 24 24 23 24 26 27
nan nan nan nan nan nan nan nan 17 nan nan nan nan 27 31 26 24 27 26 26 27 29 30 30 29 28 30 27 nan nan 25 25 25 25 26 25 25 24 25 26 28 30
nan nan nan nan nan nan nan nan nan nan nan nan 27 29 29 29 27 27 26 nan nan nan nan 30 30 30 31 nan nan nan nan nan 27 29 29 28 26 26 27 28 nan nan
nan nan nan nan nan nan nan nan nan nan nan nan nan 28 29 28 26 26 nan 32 nan nan 33 32 31 nan nan nan nan nan 32 30 30 31 31 31 31 31 nan nan nan nan
nan nan nan nan nan nan nan nan nan nan nan nan 26 27 28 29 nan nan nan nan nan 36 36 36 nan nan nan nan nan 34 35 32 32 33 33 34 34 32 nan nan nan nan
nan nan nan nan nan nan nan nan nan nan nan nan nan 28 33 nan nan nan nan nan 38 39 38 nan nan nan nan nan nan 37 36 34 33 32 32 34 34 nan nan nan nan nan
nan nan nan nan nan nan nan nan nan nan nan nan nan nan nan nan nan nan nan nan nan nan 40 40 nan nan nan nan nan 38 38 35 33 33 33 33 33 nan nan nan nan nan
nan nan nan nan nan nan nan nan nan nan nan nan nan nan nan nan nan nan nan nan 45 45 nan nan nan nan nan nan 41 40 40 38 35 32 32 33 33 nan nan nan nan nan
nan nan nan nan nan nan nan nan nan nan nan nan nan nan nan nan nan nan nan nan 47 nan nan nan nan nan nan nan nan 46 46 41 36 nan nan nan 32 nan nan nan nan nan
Wind_Direction
275 274 277 277 274 275 271 264 263 269 269 264 263 260 258 264 270 266 268 266 269 270 269 267 266 264 263 264 265 264 263 264 263 265 265 269 273 281 284 286 282 277
270 271 271 270 267 268 266 259 257 262 264 265 260 257 260 264 268 270 265 261 260 263 265 265 264 264 262 259 258 256 254 256 261 259 260 277 274 279 279 281 281 275
264 267 267 268 268 264 262 261 261 262 261 258 257 257 258 259 262 270 270 278 276 271 265 262 261 263 262 256 252 242 236 254 262 264 264 279 274 274 271 278 270 278
257 257 258 261 263 262 259 258 259 261 258 250 249 252 253 253 258 266 271 278 276 271 263 259 260 265 267 260 254 249 242 239 246 261 268 261 268 268 272 266 268 270
259 261 265 265 262 257 254 255 255 257 258 253 248 246 245 248 253 259 264 271 269 267 261 259 261 263 263 260 259 250 240 237 239 255 260 268 268 273 267 267 269 266
268 276 284 281 267 259 256 254 253 257 255 251 248 246 241 245 250 254 259 263 267 265 260 258 265 265 263 262 260 256 253 246 248 252 258 263 265 262 258 261 265 265
274 283 297 287 271 262 254 245 245 251 247 244 244 241 240 245 251 252 253 257 262 263 262 261 265 266 265 262 260 257 251 246 246 246 251 256 261 261 260 263 262 262
280 288 296 283 266 259 251 242 238 239 242 243 243 244 247 249 255 253 252 255 258 261 262 262 265 267 266 263 260 253 250 248 247 254 259 263 263 266 263 259 258 260
291 294 300 289 275 269 257 244 243 250 251 247 245 250 254 255 257 257 256 256 258 263 267 266 265 262 260 262 258 252 251 255 247 249 258 257 262 264 266 265 265 259
302 296 302 286 257 263 256 257 265 265 262 257 253 251 255 259 260 259 260 260 260 261 265 266 266 259 257 256 252 249 251 259 259 261 260 262 264 263 263 265 264 265
303 300 303 307 298 278 265 260 262 252 250 253 255 255 255 258 257 257 260 260 257 258 259 265 263 257 259 258 252 256 266 266 268 268 266 263 263 264 264 265 267 267
286 288 295 307 321 335 339 293 263 251 249 258 264 262 259 260 258 255 257 261 259 260 258 261 259 254 252 251 249 257 265 266 268 270 268 266 266 264 263 261 261 262
nan 277 277 290 306 319 320 302 256 245 243 251 263 265 263 264 264 261 250 247 255 256 254 258 257 252 249 244 247 257 258 255 259 264 263 263 263 262 260 257 257 258
nan nan 275 282 289 297 299 298 286 268 261 257 258 264 270 274 269 268 266 260 251 252 251 251 251 250 247 242 246 256 257 255 258 263 265 262 262 260 258 256 257 260
nan nan nan 274 280 288 297 300 295 287 281 277 271 267 266 274 272 274 270 263 254 247 245 247 250 248 241 238 244 253 253 255 257 260 263 264 262 260 258 258 257 256
nan nan nan nan nan 288 291 nan 297 291 286 287 286 278 273 276 278 279 273 263 256 251 246 244 245 238 234 241 247 250 251 251 254 258 260 262 264 261 255 252 253 254
nan nan nan nan nan nan 291 292 297 nan 282 265 259 266 273 274 274 276 267 252 251 255 250 242 242 235 232 238 249 254 250 252 255 256 258 259 259 258 257 258 256 256
nan nan nan nan nan nan nan 286 288 286 273 nan 268 272 268 263 262 260 255 251 245 247 245 241 241 236 234 241 255 257 252 253 252 255 256 254 255 259 259 261 261 259
nan nan nan nan nan nan nan nan 287 nan nan nan nan 264 257 257 257 250 246 241 241 248 243 241 242 241 238 245 nan nan 255 252 251 254 257 253 250 253 261 263 263 261
nan nan nan nan nan nan nan nan nan nan nan nan 265 259 256 246 242 246 244 nan nan nan nan 242 244 243 243 nan nan nan nan nan 250 252 252 252 256 256 256 262 nan nan
nan nan nan nan nan nan nan nan nan nan nan nan nan 253 251 248 238 237 nan 241 nan nan 244 240 241 nan nan nan nan nan 251 247 248 250 251 251 249 248 nan nan nan nan
nan nan nan nan nan nan nan nan nan nan nan nan 253 253 247 244 nan nan nan nan nan 243 242 241 nan nan nan nan nan 258 251 246 249 252 254 254 253 248 nan nan nan nan
nan nan nan nan nan nan nan nan nan nan nan nan nan 251 249 nan nan nan nan nan 242 240 243 nan nan nan nan nan nan 256 247 245 250 251 251 255 253 nan nan nan nan nan
nan nan nan nan nan nan nan nan nan nan nan nan nan nan nan nan nan nan nan nan nan nan 239 243 nan nan nan nan nan 248 250 249 253 255 252 254 254 nan nan nan nan nan
nan nan nan nan nan nan nan nan nan nan nan nan nan nan nan nan nan nan nan nan 233 237 nan nan nan nan nan nan 232 240 241 242 246 247 254 256 253 nan nan nan nan nan
nan nan nan nan nan nan nan nan nan nan nan nan nan nan nan nan nan nan nan nan 225 nan nan nan nan nan nan nan nan 238 237 238 242 nan nan nan 248 nan nan nan nan nan